Погода в Изюме

Погода в Изюме : погода сейчас, прогноз погоды и архив. Всё, что Вы хотите узнать о погоде в Изюме!

Хотите узнать прогноз погоды в Изюме? Тогда Вам сюда: Погода в Изюме

Поиск расширенной информации на нашем сайте:

Другие новости

Новости СМИ2

Главная страница сайта

Новости сайта

03.07.2017

Напоминаем, что на нашем специализированном сайте Метеоцентр.Азия вы можете получить высокодетализированные автоматические прогнозы погоды по пунктам России, СНГ и мира в авиационном формате (включающие направление и скорость ветра, видимость, явления погоды, количество и форму облачности, нижнюю и верхнюю границу облачности).

Рекомендуем: Купить хоккейные нагрудники.

Погода в Изюме - сегодня

Время (UTC), дата Ветер
(°,м/с) 
Видим.   Явления Облачность Т
(°С)
Тd
(°С)
f(%) Тe
(°С)
Pmin
(гПа)
dP
(гПа)
Po
(мм)
O2
(г/м3)
Тmin Tmax R s Состояние
почвы
03 20.02.18 200 (Ю) 1000 м  слаб. морось  10/10 300 м 
[Frnb]
+0.4 -0.2 96 +1  1014.8  -0.8  754  303           
06 20.02.18 160 (Ю) 20000 м    10/10 300 м 
[St]
+0.8 -1.2 86 1017.8  -1.3  756  304  -5.4      16  равномерный
мокрый или
старый снег
100% 
09 20.02.18 250 (З) 20000 м  в посл. час ливневой снег  8/5 600 м средняя 
[Cu med, cong|Ac trans]
+0.3 -6.8 59 1023.7  -0.3  760  307           
12 20.02.18 320 (СЗ) 20000 м  {ливн. осадки}  9/9 1000 м 
[Sc]
-0.4 -7.9 57 -1  1023.4  -0.4  760  308      0.0     
15 20.02.18 340 (С) 20000 м    9/9 1000 м 
[Sc]
-1 -7.6 61 -2  1023.7  0.3  760  308           
18 20.02.18 110 (В) 10 км    10/10 300 м 
[St]
-0.9 -2.8 87 -3  1029.9  0.8  765  310      0.0     
21 20.02.18 340 (С) 10 км  слаб. снег  10/9 300 м средняя 
[Frnb|As op]
-2.6 -7.1 71 -2  1024.7  0.3  761  310           
00 21.02.18 050 (СВ) 10 км  слаб. снег  10/9 300 м средняя 
[Frnb|As op]
-3.7 -7.7 74 -3  1025.1  0.3  761  312      0.0     
03 21.02.18 070 (В) 10 км  {снег}  10/10 300 м 
[St]
-4.7 -8.3 76 -4  1025.3  0.2  761  313           
06 21.02.18 050 (СВ) 20000 м  {снег}  9/0 средняя 
[Ac und]
-4.8 -9.2 71 -4  1025.9  0.6  762  313  -4.8    0.0     
09 21.02.18 020 (С) 20000 м    9/9 1000 м 
[Sc]
-3.6 -9.7 63 -5  1025.9  762  312           
12 21.02.18 070 (В) 20000 м    8/0 средняя, верхняя 
[Ac trans|Ci fib]
-2.6 -9.1 61 -4  1025.2  -0.7  761  311           
15 21.02.18 070 (В) 20000 м    6/0 верхняя 
[Cs]
-4 -9.4 66 -4  1024.9  -0.3  761  312           
18 21.02.18 090 (В) 10 км    6/0 верхняя 
[Cs]
-5.2 -8.5 78 -5  1025.4  0.4  761  314           
21 21.02.18 090 (В) 10 км    8/0 верхняя 
[Cs]
-5.5 -8.5 79 -5  1025.2  -0.2  761  314           
00 22.02.18 070 (В) 10 км    ясно 
-6.1 -8.8 81 -8  1025.3  0.1  761  315           
03 22.02.18 070 (В) 10 км    ясно 
-7.1 -10 80 -9  1025  -0.3  761  316           
06 22.02.18 090 (В) 17000 м    6/0 верхняя 
[Ci fib]
-6.7 -10 77 -6  1025.1  0.1  761  315  -7.1      равномерный
мокрый или
старый снег
100% 
09 22.02.18 110 (В) 18000 м    ясно 
-3.4 -9 65 -5  1024.8  -0.2  761  311           
12 22.02.18 070 (В) 20000 м    8/3 1000 м верхняя 
[Cu hum|Ci fib]
-2.8 -8.1 67 -5  1024.8  761  311           
15 22.02.18 070 (В) 20000 м    10/0 верхняя 
[Ci]
-4.8 -9.2 71 -6  1024.7  -0.1  761  313           
18 22.02.18 070 (В) 10 км    ясно 120 м 
-7.4 -10.4 79 -9  1025.7  0.9  762  316    -49.7      затоплена
водой 
21 22.02.18 090 (В) 10 км    8/0 средняя 
[Ac trans]
-8.6 -11.4 80 -11  1025.6  -0.2  761  318           
00 23.02.18 090 (В) 10 км    9/0 средняя 
[Ac und]
-9.2 -12.2 79 -11  1025.6  761  319           
03 23.02.18 070 (В) 10 км    6/0 средняя 
[Ac trans]
-10.8 -13.6 80 -13  1025.2  -0.5  761  321           
Время (UTC), дата Ветер
(°,м/с) 
Видим.   Явления Облачность Т
(°С)
Тd
(°С)
f(%) Тe
(°С)
Pmin
(гПа)
dP
(гПа)
Po
(мм)
O2
(г/м3)
Тmin Tmax R s Состояние
почвы

Для получения пояснительной информации подведите курсор к названию столбца.

ПОГОДА в Изюме - архив

Всё, что Вы хотите узнать о погоде в Изюме - удобно и подробно!

Выберите нужную дату (начиная с 1 января 2015* года) и нажмите кнопку "Найти".
Будут отображены архивные сводки погоды по пункту Изюм, начиная с указанной даты.


Отображать данные в формате CSV (для использования в таблицах Excel)


Внимание! Наш архив погоды предназначен исключительно для личного некоммерческого использования в познавательных целях. Если Вам необходимы официальные справки о состоянии погоды (для производственных, юридических, коммерческих и т.п. целей), обращайтесь в органы Росгидромета.

*Примечание: данная дата относится к архиву по метеостанциям СССР (Россия, СНГ, Балтия).
Архив по метеостанциям Зарубежной Европы и Азии (кроме Китая) хранится 10 дней, по другим регионам земного шара (Китай, Африка, Америка, Австралия, Океания) - 1 день.

Изюм - район местоположения метеостанции


Название, широта, долгота, высота метеостанции:
Изюм 49.2°ш. 37.3°д. 78 м над ур. моря [Украина]

Дополнительная информация

В oтличие oт бoльшинства пoгoдных сайтoв мы публикуем пoдрoбную метеoинфoрмацию в детальнoм прoфессиoнальнoм фoрмате.

Характеристики температуры и влажнoсти вoздуха измеряются на высoте 2 м в тени вдали oт зданий и деревьев.
Скoрoсть ветра измеряется на высoте 10 м (на урoвне рoста челoвека скoрoсть ветра ниже в 1.5-2 раза). Если метеoстанция нахoдится в гoрoде или в лесу, тo скoрoсть ветра занижена на 2-4 м/с пo сравнению с oткрытым местoм. Скoрoсть ветра над акватoриями крупных рек и oзёр, а также на вершинах хoлмoв на 2-5 м/с выше, чем в oбычных услoвиях.
Атмoсфернoе давление в разных тoчках местнoсти мoжет значительнo oтличаться oт давления на метеoстанции, в зависимoсти oт услoвий рельефа (при пoдъёме на 10 м давление пoнижается примернo на 1 мм рт.ст.).